Location: Trebic
(49.2170°N, 15.8830°E)
Time: 11:51:27
(UTC+02:00)

Transit 2A Rocket - Pass Details

Date: 24 July 2019
Orbit: 590 x 913 km, 66.7° (Epoch: 19 August)

Event Time Altitude Azimuth Distance (km) Brightness Sun altitude
Rises 05:13:59 0° 251° (WSW) 3,489 - -1.3°
Exits shadow 05:14:09 - 252° (WSW) 3,436 7.7 -1.3°
Reaches altitude 10° 05:16:53 10° 262° (W) 2,518 7.1 -0.9°
Maximum altitude 05:21:56 29° 322° (NW) 1,473 6.5 -0.2°
Drops below altitude 10° 05:26:41 10° 23° (NNE) 2,356 8.5 0.4°
Sets 05:29:19 0° 35° (NE) 3,230 9.6 0.8°
